Погода в Кирсанове

Погода в Кирсанове : погода сейчас, прогноз погоды и архив. Всё, что Вы хотите узнать о погоде в Кирсанове!

Хотите узнать прогноз погоды в Кирсанове? Тогда Вам сюда: Погода в Кирсанове

Поиск расширенной информации на нашем сайте:

Полезная информация: О такси море такси.

Другие новости

Новости СМИ2

Главная страница сайта

Новости сайта

02.10.2013

Напоминаем, что на нашем новом сайте вы можете получить высокодетализированные прогнозы погоды по пунктам России, СНГ и мира (включающие важные для авиации метеовеличины, такие как направление и скорость ветра, видимость, явления погоды, количество и форма облачности, нижняя и верхняя граница облачности), а также ознакомиться с разнообразными материалами по авиационной метеорологии и подборкой полезных ссылок на эту тему.

Сайт Метеоцентр.Азия посвящён разработке технологий оптимизации авиаметеорологического обслуживания, включая проектирование и перспективное создание нескольких автоматизированных авиаметеорологических систем:
- система выпуска высокодетальных прогностических карт явлений погоды для нижнего воздушного пространства по России и ближнему зарубежью;
- система верификации прогнозов TAF (выпускаемых синоптиками официальных АМСГ РФ и ближнего зарубежья) и AUTOTAF (выпускаемых сайтом Метеоцентр.Азия) - выявление ошибок, онлайн-сопоставление с фактической погодой METAR, автоматическое внесение коррективов в прогнозы при резком отклонении фактической погоды от прогноза, подсчёт оправдываемости прогнозов по элементам и в целом;
- система обработки, анализа и отображения авиаметеорологической информации для применения провайдерами метеорологической информации.

Рекомендуем: София Драгош - лучшая румынская ведьма в Москве

Погода в Кирсанове - сегодня

Время (UTC), дата Ветер
(°,м/с) 
Видим.   Явления Облачность Т
(°С)
Тd
(°С)
f(%) Тe
(°С)
Pmin
(гПа)
dP
(гПа)
Po
(мм)
O2
(г/м3)
Тmin Tmax R s Состояние
почвы
15 25.02.17 290 (З) 4-13  10 км    10/0 средняя 
[As op]
-1.3 -6 70 -4  1001.5  3.1  735  298    +3.6       
18 25.02.17 260 (З) 10 км    ясно 
-2.1 -6.7 71 -4  1004.5  2.8  738  300           
21 25.02.17 240 (ЮЗ) 10 км    ясно 
-4.1 -7.9 75 -6  1005.3  0.6  738  303           
00 26.02.17 240 (ЮЗ) 10 км    ясно 
-5.3 -8.2 80 -8  1006.4  739  304           
03 26.02.17 240 (ЮЗ) 10 км    ясно 
-5.8 -8.8 79 -8  1008  1.4  740  305  -5.9      32  равномерный
мокрый или
старый снег
100% 
06 26.02.17 240 (ЮЗ) 10 км    10/0 средняя 
[As op]
-4.5 -7.2 81 -7  1009.3  1.5  741  304           
09 26.02.17 250 (З) 4-10  10 км    8/0 средняя 
[Ac trans]
-1.9 -5.7 75 -5  1010.3  1.2  742  302           
12 26.02.17 270 (З) 5-11  10 км  {снег}  6/6 600 м 
[Sc]
-2.9 -9.1 62 -6  1012.7  2.3  744  304           
15 26.02.17 240 (ЮЗ) 3-11  10 км    3/0 средняя 
[Ac trans]
-4.3 -9.8 65 -7  1013.8  0.9  744  306    -1.7  0.2     
18 26.02.17 230 (ЮЗ) 10 км    ясно 
-5.6 -9 77 -8  1014.4  0.4  745  307           
21 26.02.17 220 (ЮЗ) 10 км    4/0 средняя 
[Ac trans]
-4.4 -7.8 77 -8  1013.4  -0.8  744  305           
00 27.02.17 220 (ЮЗ) 10 км    10/0 средняя 
[As op]
-3.2 -6.2 80 -6  1011.2  -2  742  303           
03 27.02.17 220 (ЮЗ) 5-10  4000 м  слаб. снег  10/10 300 м 
[Frnb|Ns]
-2.6 -5.2 82 -6  1009.5  -1.6  741  302  -5.9    0.0  32  равномерный
мокрый или
старый снег
100% 
06 27.02.17 220 (ЮЗ) 5-10  4000 м  слаб. снег  10/10 300 м 
[Frnb|Ns]
-1.3 -3.3 86 -5  1008.7  -0.7  741  300           
09 27.02.17 220 (ЮЗ) 4-11  4000 м  слаб. снег  10/10 300 м 
[Frnb|Ns]
+0.4 -1.6 86 -2  1008.5  -0.2  741  298           
12 27.02.17 230 (ЮЗ) 4-11  4000 м  слаб. снег  10/10 300 м 
[Frnb|Ns]
+1 -1 86 -1  1008.1  -0.2  740  297           
15 27.02.17 240 (ЮЗ) 3-11  10 км  в посл. час снег  10/10 300 м 
[St]
+0.3 -0.5 94 -1  1008.7  0.5  741  298    +1.1     
18 27.02.17 240 (ЮЗ) 4000 м  слаб. морось{снег}  10/10 300 м 
[St]
+0.9 -0.2 92 -1  1010.6  742  298           
21 27.02.17 240 (ЮЗ) 10 км  {морось}  10/10 600 м 
[Sc]
+1.2 -0.5 88 1012.4  1.7  744  298           
00 28.02.17 260 (З) 10 км    10/10 600 м 
[Sc]
+1.5 -0.5 87 1025.2  1.9  745  299           
03 28.02.17 300 (СЗ) 10 км    8/0 средняя 
[Ac trans]
+1 -1.9 81 -1  1017.3  747  300  +0.3    0.0  31  равномерный
мокрый или
старый снег
100% 
06 28.02.17 300 (СЗ) 10 км    4/0 средняя 
[Ac trans]
+0.6 -1.7 85 1019.5  2.1  749  301           
09 28.02.17 260 (З) 10 км    3/0 средняя 
[Ac trans]
+2.6 -2 72 +2  1021.7  2.3  751  300           
12 28.02.17 270 (З) 10 км    4/3 1000 м средняя 
[Cu med, cong|Ac trans]
+2.8 -3.4 64 +4  1022.5  0.7  751  300           
15 28.02.17 210 (ЮЗ) 10 км    8/0 средняя 
[Ac As]
-0.5 -2 90 1023.8  752  304    +3.6       
Время (UTC), дата Ветер
(°,м/с) 
Видим.   Явления Облачность Т
(°С)
Тd
(°С)
f(%) Тe
(°С)
Pmin
(гПа)
dP
(гПа)
Po
(мм)
O2
(г/м3)
Тmin Tmax R s Состояние
почвы

Для получения пояснительной информации подведите курсор к названию столбца.

ПОГОДА в Кирсанове - архив

Всё, что Вы хотите узнать о погоде в Кирсанове - удобно и подробно!

Выберите нужную дату (начиная с 1 января 2015* года) и нажмите кнопку "Найти".
Будут отображены архивные сводки погоды по пункту Кирсанов, начиная с указанной даты.


Отображать данные в формате CSV (для использования в таблицах Excel)


Внимание! Наш архив погоды предназначен исключительно для личного некоммерческого использования в познавательных целях. Если Вам необходимы официальные справки о состоянии погоды (для производственных, юридических, коммерческих и т.п. целей), обращайтесь в органы Росгидромета.

*Примечание: данная дата относится к архиву по метеостанциям СССР (Россия, СНГ, Балтия).
Архив по метеостанциям Зарубежной Европы и Азии (кроме Китая) хранится 10 дней, по другим регионам земного шара (Китай, Африка, Америка, Австралия, Океания) - 1 день.

Кирсанов - район местоположения метеостанции


Название, широта, долгота, высота метеостанции:
Кирсанов 52.7°ш. 42.7°д. 169 м над ур. моря [Российская Федерация]

Дополнительная информация

В oтличие oт бoльшинства пoгoдных сайтoв мы публикуем пoдрoбную метеoинфoрмацию в детальнoм прoфессиoнальнoм фoрмате.

Характеристики температуры и влажнoсти вoздуха измеряются на высoте 2 м в тени вдали oт зданий и деревьев.
Скoрoсть ветра измеряется на высoте 10 м (на урoвне рoста челoвека скoрoсть ветра ниже в 1.5-2 раза). Если метеoстанция нахoдится в гoрoде или в лесу, тo скoрoсть ветра занижена на 2-4 м/с пo сравнению с oткрытым местoм. Скoрoсть ветра над акватoриями крупных рек и oзёр, а также на вершинах хoлмoв на 2-5 м/с выше, чем в oбычных услoвиях.
Атмoсфернoе давление в разных тoчках местнoсти мoжет значительнo oтличаться oт давления на метеoстанции, в зависимoсти oт услoвий рельефа (при пoдъёме на 10 м давление пoнижается примернo на 1 мм рт.ст.).